Location: Berg
(48.4333°N, 13.9167°E)
Time: 08:57:44
(UTC+00:00)

Spot 2 Rocket - Pass Details

Date: 18 September 2020
Orbit: 758 x 771 km, 98.6° (Epoch: 24 October)

Event Time Altitude Azimuth Distance (km) Brightness Sun altitude
Exits shadow 19:48:07 57° 52° (NE) 890 3.6 -25.4°
Drops below altitude 10° 19:52:45 10° 352° (N) 2,299 6.5 -26.0°
Sets 19:55:05 0° 349° (N) 3,229 7.4 -26.3°
